sat.trackr.live / text

‹ back to catalog

STARLINK-34466

NORAD 66226 · 2025-244W

PAYLOAD ACTIVE UNKNOWN

§ Identity

Operator
Country
US
Launch date
2025-10-28
Launch site
AFWTR
Launch vehicle
Mass (kg)
RCS (m²)

Purposes: comms

External: N2YO · Heavens-Above · Gunter

§ Orbital elements

Epoch: 2026-09-20T21:00:59.409504Z

Period
93.85 min
Inclination
53.1584°
Eccentricity
0.0000841
Mean motion
15.34427754 rev/d
Perigee alt
462.0 km
Apogee alt
463.2 km
Semi-major
6,840.8 km
B*
3.3658e-4
RAAN
39.7225°
Arg perigee
72.8216°
Mean anomaly
287.2878°
Rev number
5,159

§ Raw data

STARLINK-344661 66226U 25244W   26263.87568761  .00011023  00000+0  33658-3 0  99902 66226  53.1584  39.7225 0000841  72.8216 287.2878 15.34427754 51591

JSON: /api/v1/satellites/66226 · /tle

For live sub-satellite position, see the globe view (requires WebGL).

§ Visibility from observer

Set your observer location to see the next 7 days of passes ≥ 10°. The values pass through the URL so the page stays shareable.

No JS? Fill the form by hand. The geolocation button needs JavaScript.